Portada
METAR-TAF:

METAR-TAF

Aeroports :

Penrhyn, Illes Cook

latitud: 9-00-52S, longitud: 158-01-57W, altitud: 2 m

Observació

L'informe es va fer fa 1 hora i 0 minuts, a les 16:00 UTC
Vent 8 kt del Est/Nord-Est
Temperatura 28°C
Humitat 79%
Pressió 1005 hPa

METAR: NCPY 181600Z AUTO 07008KT //// ////// 28/24 Q1005

Hora: 07:00 (17:00 UTC)


TAF: manca

Observacions i pronòstics meteorològics de més de 4000 aeroports (METAR i TAF).

Les estacions disponibles són els punts grocs i vermells al mapa.

Posi el ratolí al punt desitjat per veure el nom de l'estació.

Feu clic per veure les observacions i els pronòstics meteorològics.

Per canviar el mapa: feu clic els botons verds amb una creu de color negre per apropar; al botó verd amb un guió per allunyar la imatge; o en les fletxes verdes per a mapes adjacents.


METAR-TAF: